This is the latest recevied weather packets stored in our database for station/object KT2UU-13. If no packets are shown the sender has not sent any weather packets the latest 10 day(s).
| Time | Temp. | Humidity | Pressure | Rain* | Wind** | Luminosity | Snow |
|---|---|---|---|---|---|---|---|
| 1777488364 | 25.56° C | 76% | 1013.4 hPa | 0 mm | - | - | - |
| 1777488063 | 25° C | 77% | 1013.4 hPa | 0 mm | - | - | - |
| 1777487760 | 25° C | 78% | 1013.5 hPa | 0 mm | - | - | - |
| 1777487457 | 25° C | 78% | 1013.3 hPa | 0 mm | - | - | - |
| 1777487155 | 25° C | 79% | 1013.6 hPa | 0 mm | - | - | - |
| 1777486850 | 25° C | 78% | 1013.4 hPa | 0 mm | - | - | - |
| 1777486548 | 25.56° C | 79% | 1013.5 hPa | 0 mm | - | - | - |
| 1777486245 | 25° C | 78% | 1013.5 hPa | 0 mm | - | - | - |
| 1777485943 | 24.44° C | 78% | 1013.8 hPa | 0 mm | - | - | - |
| 1777485639 | 24.44° C | 77% | 1013.6 hPa | 0 mm | - | - | - |
| 1777485333 | 24.44° C | 77% | 1013.9 hPa | 0 mm | - | - | - |
| 1777485030 | 24.44° C | 78% | 1014 hPa | 0 mm | - | - | - |
| 1777484728 | 24.44° C | 80% | 1013.8 hPa | 0 mm | - | - | - |
| 1777484424 | 24.44° C | 79% | 1014 hPa | 0 mm | - | - | - |
| 1777484121 | 23.89° C | 81% | 1013.9 hPa | 0 mm | - | - | - |
| 1777483817 | 23.89° C | 80% | 1014.1 hPa | 0 mm | - | - | - |
| 1777483514 | 23.89° C | 80% | 1014.1 hPa | 0 mm | - | - | - |
| 1777483209 | 23.33° C | 80% | 1014.1 hPa | 0 mm | - | - | - |
| 1777482905 | 23.33° C | 80% | 1014.1 hPa | 0 mm | - | - | - |
| 1777482601 | 23.89° C | 80% | 1014.1 hPa | 0 mm | - | - | - |
| 1777482298 | 23.89° C | 78% | 1014.3 hPa | 0 mm | - | - | - |
| 1777481995 | 23.89° C | 78% | 1013.9 hPa | 0 mm | - | - | - |
| 1777481693 | 24.44° C | 78% | 1014.1 hPa | 0 mm | - | - | - |
| 1777481390 | 24.44° C | 77% | 1014 hPa | 0 mm | - | - | - |
| 1777481086 | 24.44° C | 77% | 1014.1 hPa | 0 mm | - | - | - |
* Rain latest hour (hover to see other rain measurements)
** Current wind speed in m/s (hover to see current wind gust speed)